Regional Weather Roundup
Issued by NWS

Home | Current Version | Previous Version | Text Only | Print | Product List | Glossary Off
Versions: 1 2 3 4 5 6 7 8 9 10 11 12 13 14 15 16 17 18 19 20 21 22 23 24 25 26 27 28 29 30 31 32 33 34 35 36 37 38 39 40 41 42 43 44 45 46 47 48 49 50

000
ASUS43 KBIS 282220
RWRND

NORTH DAKOTA REGIONAL WEATHER ROUNDUP
NATIONAL WEATHER SERVICE BISMARCK ND
500 PM CDT SAT MAR 28 2015

NOTE: "FAIR" INDICATES FEW OR NO CLOUDS BELOW 12,000 FEET WITH NO
SIGNIFICANT WEATHER AND/OR OBSTRUCTIONS TO VISIBILITY.


NDZ001>003-009>011-017-282300-
NORTHWEST NORTH DAKOTA

CITY           SKY/WX    TMP DP  RH WIND       PRES   REMARKS
WILLISTON      CLOUDY    77  36  22 SW17G24   29.40F
MINOT          CLOUDY    63  39  41 S18G28    29.48F
MINOT AFB      CLOUDY    62  46  55 S21       29.45F
$$

NDZ018>021-031>035-040>046-282300-
SOUTHWEST NORTH DAKOTA

CITY           SKY/WX    TMP DP  RH WIND       PRES   REMARKS
BISMARCK       SUNNY     66  35  31 S20G28    29.61F
DICKINSON      PTSUNNY   78  33  19 S25       29.48F
GARRISON         N/A     62  39  42 S16       29.51F
HETTINGER ARPT MOSUNNY   78  31  17 S21G28    29.57F
$$

NDZ004>008-012>016-024-026-027-054-282300-
NORTHEAST NORTH DAKOTA

CITY           SKY/WX    TMP DP  RH WIND       PRES   REMARKS
GRAND FORKS    CLOUDY    49  31  49 S23G38    29.77F
GRND FRKS AFB  CLOUDY    47  32  55 S24G37    29.75F
DEVILS LAKE    PTSUNNY   48  39  71 S25       29.63F
$$

NDZ022-023-025-028>030-036>039-047>053-282300-
SOUTHEAST NORTH DAKOTA

CITY           SKY/WX    TMP DP  RH WIND       PRES   REMARKS
FARGO          SUNNY     53  28  38 S28G37    29.84F
JAMESTOWN      MOSUNNY   53  35  50 S30G38    29.71F
$$




USA.gov is the U.S. government's official web portal to all federal, state and local government web resources and services.